Location: Rogalle
(42.8890°N, 1.1916°E)
Time: 13:53:19
(UTC+00:00)

Cosmos 1937 Rocket - Pass Details

Date: 13 December 2025
Orbit: 743 x 775 km, 74.0° (Epoch: 19 January)

Event Time Altitude Azimuth Distance (km) Brightness Sun altitude
Rises 17:20:39 0° 169° (S) 3,201 6.9 -10.6°
Reaches altitude 10° 17:23:17 10° 158° (SSE) 2,275 6.0 -11.0°
Maximum altitude 17:27:39 29° 100° (E) 1,364 4.3 -11.7°
Enters shadow 17:30:57 15° 49° (NE) 1,934 5.0 -12.3°
